TimeCDT,TemperatureF,Dew PointF,Humidity,Sea Level PressureIn,VisibilityMPH,Wind Direction,Wind SpeedMPH,Gust SpeedMPH,PrecipitationIn,Events,Conditions,WindDirDegrees,DateUTC
12:55 AM,60.1,54.0,80,29.93,10.0,SE,5.8,-,N/A,,Mostly Cloudy,130,2013-05-09 05:55:00
1:40 AM,60.8,55.4,82,29.94,10.0,South,5.8,-,N/A,Thunderstorm,Overcast,190,2013-05-09 06:40:00
1:55 AM,61.0,55.0,81,29.96,10.0,SSW,10.4,-,0.00,Rain-Thunderstorm,Light Rain,200,2013-05-09 06:55:00
2:10 AM,59.0,57.2,94,29.95,2.5,South,15.0,-,0.10,Rain-Thunderstorm,Light Rain,190,2013-05-09 07:10:00
2:18 AM,59.0,57.2,94,29.96,6.0,South,11.5,20.7,0.10,Rain-Thunderstorm,Light Rain,190,2013-05-09 07:18:00
2:53 AM,59.0,57.2,94,29.95,5.0,South,9.2,-,0.14,Rain,Light Rain,180,2013-05-09 07:53:00
2:55 AM,59.0,57.9,96,29.95,4.0,South,10.4,-,0.15,Rain,Rain,180,2013-05-09 07:55:00
3:55 AM,59.0,57.9,96,29.94,8.0,South,6.9,-,0.11,Rain,Light Rain,180,2013-05-09 08:55:00
4:55 AM,59.0,57.0,93,29.89,10.0,SE,12.7,-,0.07,,Mostly Cloudy,130,2013-05-09 09:55:00
5:55 AM,57.9,57.0,97,29.88,10.0,SE,8.1,-,N/A,,Mostly Cloudy,140,2013-05-09 10:55:00
6:55 AM,59.0,57.9,96,29.90,9.0,SE,6.9,-,N/A,,Mostly Cloudy,130,2013-05-09 11:55:00
7:55 AM,60.1,59.0,96,29.90,9.0,Calm,Calm,-,N/A,,Mostly Cloudy,0,2013-05-09 12:55:00
8:55 AM,62.1,59.0,90,29.91,10.0,East,4.6,-,N/A,,Overcast,90,2013-05-09 13:55:00
9:14 AM,62.6,59.0,88,29.90,10.0,NE,4.6,-,N/A,,Overcast,50,2013-05-09 14:14:00
9:37 AM,62.6,59.0,88,29.91,10.0,Calm,Calm,-,N/A,,Overcast,0,2013-05-09 14:37:00
9:44 AM,62.6,59.0,88,29.91,10.0,NNE,3.5,-,N/A,,Overcast,30,2013-05-09 14:44:00
9:55 AM,62.1,59.0,90,29.91,10.0,Calm,Calm,-,N/A,,Overcast,0,2013-05-09 14:55:00
10:55 AM,62.1,59.0,90,29.91,10.0,East,3.5,-,0.00,,Overcast,90,2013-05-09 15:55:00
11:09 AM,62.6,60.8,94,29.90,10.0,East,4.6,-,N/A,,Overcast,100,2013-05-09 16:09:00
11:14 AM,62.6,60.8,94,29.90,10.0,ESE,3.5,-,N/A,,Overcast,110,2013-05-09 16:14:00
12:06 PM,64.4,60.8,88,29.89,10.0,SE,4.6,-,N/A,,Mostly Cloudy,130,2013-05-09 17:06:00
12:27 PM,66.2,62.6,88,29.89,10.0,SE,3.5,-,N/A,,Overcast,140,2013-05-09 17:27:00
12:55 PM,66.9,62.1,84,29.87,10.0,SE,4.6,-,N/A,,Overcast,140,2013-05-09 17:55:00
1:36 PM,68.0,60.8,78,29.87,10.0,SW,4.6,-,N/A,,Overcast,230,2013-05-09 18:36:00
1:55 PM,69.1,61.0,75,29.86,10.0,SW,6.9,-,N/A,,Overcast,220,2013-05-09 18:55:00
2:16 PM,69.8,60.8,73,29.86,10.0,Calm,Calm,-,N/A,,Mostly Cloudy,0,2013-05-09 19:16:00
2:32 PM,71.6,62.6,73,29.85,10.0,SSW,8.1,-,N/A,,Mostly Cloudy,210,2013-05-09 19:32:00
2:55 PM,69.1,60.1,73,29.84,10.0,SW,6.9,-,N/A,,Mostly Cloudy,220,2013-05-09 19:55:00
3:55 PM,69.1,59.0,70,29.84,10.0,WSW,10.4,16.1,0.00,,Overcast,240,2013-05-09 20:55:00
4:55 PM,71.1,60.1,68,29.84,10.0,West,10.4,16.1,N/A,,Mostly Cloudy,270,2013-05-09 21:55:00
5:55 PM,69.1,57.9,68,29.84,10.0,WNW,9.2,19.6,N/A,,Mostly Cloudy,290,2013-05-09 22:55:00
6:55 PM,66.9,57.9,73,29.85,10.0,WNW,12.7,20.7,N/A,,Partly Cloudy,290,2013-05-09 23:55:00
7:55 PM,64.0,57.0,78,29.88,10.0,NW,5.8,-,N/A,,Scattered Clouds,310,2013-05-10 00:55:00
8:55 PM,61.0,55.9,83,29.89,10.0,WSW,3.5,-,N/A,,Clear,250,2013-05-10 01:55:00
9:55 PM,57.9,55.9,93,29.90,10.0,SW,3.5,-,N/A,,Clear,220,2013-05-10 02:55:00
10:55 PM,55.0,54.0,96,29.89,9.0,Calm,Calm,-,N/A,,Clear,0,2013-05-10 03:55:00
11:55 PM,57.0,55.0,93,29.91,10.0,WSW,4.6,-,N/A,,Clear,250,2013-05-10 04:55:00